Time,TemperatureF,DewpointF,PressureIn,WindDirection,WindDirectionDegrees,WindSpeedMPH,WindSpeedGustMPH,Humidity,HourlyPrecipIn,Conditions,Clouds,dailyrainin,SoftwareType,DateUTC
2013-01-23 00:05:00,22.4,7.4,30.31,NNE,18,0.0,0.0,52,0.00,,,0.00,Wunderground v.1.15,2013-01-23 05:05:00,
2013-01-23 00:10:00,22.5,7.5,30.31,NNE,18,0.0,0.0,52,0.00,,,0.00,Wunderground v.1.15,2013-01-23 05:10:00,
2013-01-23 00:15:00,22.4,9.4,30.31,NNE,17,0.0,0.0,57,0.00,,,0.00,Wunderground v.1.15,2013-01-23 05:15:00,
2013-01-23 00:20:00,22.2,7.2,30.31,NNE,15,0.0,0.0,52,0.00,,,0.00,Wunderground v.1.15,2013-01-23 05:20:00,
2013-01-23 00:25:00,22.2,7.2,30.31,NNE,15,0.0,0.0,52,0.00,,,0.00,Wunderground v.1.15,2013-01-23 05:25:00,
2013-01-23 00:30:00,22.2,8.9,30.31,NNE,15,0.0,0.0,56,0.00,,,0.00,Wunderground v.1.15,2013-01-23 05:30:00,
2013-01-23 00:35:00,22.1,8.8,30.31,NNE,15,0.0,0.0,56,0.00,,,0.00,Wunderground v.1.15,2013-01-23 05:35:00,
2013-01-23 00:40:00,22.1,8.8,30.32,NNE,15,0.0,0.0,56,0.00,,,0.00,Wunderground v.1.15,2013-01-23 05:40:00,
2013-01-23 00:45:00,22.0,11.3,30.31,NNE,15,0.0,0.0,63,0.00,,,0.00,Wunderground v.1.15,2013-01-23 05:45:00,
2013-01-23 00:50:00,21.8,11.5,30.32,NNE,15,0.0,0.0,64,0.00,,,0.00,Wunderground v.1.15,2013-01-23 05:50:00,
2013-01-23 01:00:00,21.5,6.1,30.32,NNE,15,0.0,0.0,51,0.00,,,0.00,Wunderground v.1.15,2013-01-23 06:00:00,
2013-01-23 01:05:00,21.5,8.6,30.32,NNE,15,0.0,0.0,57,0.00,,,0.00,Wunderground v.1.15,2013-01-23 06:05:00,
2013-01-23 01:10:00,21.5,9.0,30.32,NNE,15,0.0,0.0,58,0.00,,,0.00,Wunderground v.1.15,2013-01-23 06:10:00,
2013-01-23 01:15:00,21.5,8.6,30.32,NNE,15,0.0,0.0,57,0.00,,,0.00,Wunderground v.1.15,2013-01-23 06:15:00,
2013-01-23 01:20:00,21.6,8.3,30.32,NNE,15,0.0,0.0,56,0.00,,,0.00,Wunderground v.1.15,2013-01-23 06:20:00,
2013-01-23 01:25:00,21.6,8.3,30.32,NNE,15,0.0,0.0,56,0.00,,,0.00,Wunderground v.1.15,2013-01-23 06:25:00,
2013-01-23 01:30:00,21.6,7.5,30.32,NNE,15,0.0,0.0,54,0.00,,,0.00,Wunderground v.1.15,2013-01-23 06:30:00,
2013-01-23 01:35:00,21.5,7.8,30.32,NNE,15,0.0,0.0,55,0.00,,,0.00,Wunderground v.1.15,2013-01-23 06:35:00,
2013-01-23 01:40:00,21.5,9.4,30.33,NNE,15,0.0,0.0,59,0.00,,,0.00,Wunderground v.1.15,2013-01-23 06:40:00,
2013-01-23 01:45:00,21.4,8.9,30.33,NNE,15,0.0,0.0,58,0.00,,,0.00,Wunderground v.1.15,2013-01-23 06:45:00,
2013-01-23 01:50:00,21.2,8.7,30.33,NNE,15,0.0,0.0,58,0.00,,,0.00,Wunderground v.1.15,2013-01-23 06:50:00,
2013-01-23 01:55:00,21.1,9.7,30.33,NNE,15,0.0,0.0,61,0.00,,,0.00,Wunderground v.1.15,2013-01-23 06:55:00,
2013-01-23 02:00:00,20.9,8.8,30.33,NNE,15,0.0,0.0,59,0.00,,,0.00,Wunderground v.1.15,2013-01-23 07:00:00,
2013-01-23 02:10:00,20.6,9.3,30.33,NNE,15,0.0,0.0,61,0.00,,,0.00,Wunderground v.1.15,2013-01-23 07:10:00,
2013-01-23 02:15:00,20.5,9.5,30.33,NNE,15,0.0,0.0,62,0.00,,,0.00,Wunderground v.1.15,2013-01-23 07:15:00,
2013-01-23 02:20:00,20.3,8.2,30.33,NNE,15,0.0,0.0,59,0.00,,,0.00,Wunderground v.1.15,2013-01-23 07:20:00,
2013-01-23 02:25:00,20.2,8.1,30.34,NNE,15,0.0,0.0,59,0.00,,,0.00,Wunderground v.1.15,2013-01-23 07:25:00,
2013-01-23 02:30:00,20.2,8.5,30.34,NNE,15,0.0,0.0,60,0.00,,,0.00,Wunderground v.1.15,2013-01-23 07:30:00,
2013-01-23 02:40:00,19.9,8.6,30.34,NNE,15,0.0,0.0,61,0.00,,,0.00,Wunderground v.1.15,2013-01-23 07:40:00,
2013-01-23 02:45:00,19.8,8.5,30.33,NNE,15,0.0,0.0,61,0.00,,,0.00,Wunderground v.1.15,2013-01-23 07:45:00,
2013-01-23 02:50:00,19.7,9.1,30.34,NNE,15,0.0,0.0,63,0.00,,,0.00,Wunderground v.1.15,2013-01-23 07:50:00,
2013-01-23 02:55:00,19.7,9.1,30.34,NNE,15,0.0,0.0,63,0.00,,,0.00,Wunderground v.1.15,2013-01-23 07:55:00,
2013-01-23 03:00:00,19.7,9.8,30.34,NNE,15,0.0,0.0,65,0.00,,,0.00,Wunderground v.1.15,2013-01-23 08:00:00,
2013-01-23 03:10:00,19.6,9.7,30.34,NNE,15,0.0,0.0,65,0.00,,,0.00,Wunderground v.1.15,2013-01-23 08:10:00,
2013-01-23 03:20:00,19.4,9.9,30.34,NNE,15,0.0,0.0,66,0.00,,,0.00,Wunderground v.1.15,2013-01-23 08:20:00,
2013-01-23 03:25:00,19.4,9.5,30.34,NNE,15,0.0,0.0,65,0.00,,,0.00,Wunderground v.1.15,2013-01-23 08:25:00,
2013-01-23 03:30:00,19.3,10.8,30.34,NNE,15,0.0,0.0,69,0.00,,,0.00,Wunderground v.1.15,2013-01-23 08:30:00,
2013-01-23 03:40:00,19.0,10.5,30.34,NNE,15,0.0,0.0,69,0.00,,,0.00,Wunderground v.1.15,2013-01-23 08:40:00,
2013-01-23 03:50:00,18.6,9.5,30.34,NNE,15,0.0,0.0,67,0.00,,,0.00,Wunderground v.1.15,2013-01-23 08:50:00,
2013-01-23 03:55:00,18.5,9.4,30.34,NNE,15,0.0,0.0,67,0.00,,,0.00,Wunderground v.1.15,2013-01-23 08:55:00,
2013-01-23 04:00:00,18.3,9.2,30.35,NNE,15,0.0,0.0,67,0.00,,,0.00,Wunderground v.1.15,2013-01-23 09:00:00,
2013-01-23 04:05:00,18.2,9.1,30.35,NNE,15,0.0,0.0,67,0.00,,,0.00,Wunderground v.1.15,2013-01-23 09:05:00,
2013-01-23 04:10:00,18.0,8.9,30.35,NNE,15,0.0,0.0,67,0.00,,,0.00,Wunderground v.1.15,2013-01-23 09:10:00,
2013-01-23 04:15:00,18.0,9.2,30.35,NNE,15,0.0,0.0,68,0.00,,,0.00,Wunderground v.1.15,2013-01-23 09:15:00,
2013-01-23 04:20:00,17.9,9.1,30.35,NNE,15,0.0,0.0,68,0.00,,,0.00,Wunderground v.1.15,2013-01-23 09:20:00,
2013-01-23 04:25:00,17.9,9.4,30.35,NNE,15,0.0,0.0,69,0.00,,,0.00,Wunderground v.1.15,2013-01-23 09:25:00,
2013-01-23 04:30:00,17.9,9.8,30.35,NNE,15,0.0,0.0,70,0.00,,,0.00,Wunderground v.1.15,2013-01-23 09:30:00,
2013-01-23 04:40:00,17.8,10.0,30.35,NNE,15,0.0,0.0,71,0.00,,,0.00,Wunderground v.1.15,2013-01-23 09:40:00,
2013-01-23 04:45:00,17.7,9.9,30.35,NNE,15,0.0,0.0,71,0.00,,,0.00,Wunderground v.1.15,2013-01-23 09:45:00,
2013-01-23 04:50:00,17.6,9.8,30.35,NNE,15,0.0,0.0,71,0.00,,,0.00,Wunderground v.1.15,2013-01-23 09:50:00,
2013-01-23 04:55:00,17.5,10.0,30.35,NNE,15,0.0,0.0,72,0.00,,,0.00,Wunderground v.1.15,2013-01-23 09:55:00,
2013-01-23 05:00:00,17.4,10.2,30.35,NNE,15,0.0,0.0,73,0.00,,,0.00,Wunderground v.1.15,2013-01-23 10:00:00,
2013-01-23 05:05:00,17.3,9.8,30.35,NNE,15,0.0,0.0,72,0.00,,,0.00,Wunderground v.1.15,2013-01-23 10:05:00,
2013-01-23 05:10:00,17.2,9.4,30.35,NNE,15,0.0,0.0,71,0.00,,,0.00,Wunderground v.1.15,2013-01-23 10:10:00,
2013-01-23 05:15:00,17.2,9.7,30.35,NNE,15,0.0,0.0,72,0.00,,,0.00,Wunderground v.1.15,2013-01-23 10:15:00,
2013-01-23 05:20:00,17.3,9.5,30.35,NNE,15,0.0,0.0,71,0.00,,,0.00,Wunderground v.1.15,2013-01-23 10:20:00,
2013-01-23 05:25:00,17.3,9.8,30.35,NNE,15,0.0,0.0,72,0.00,,,0.00,Wunderground v.1.15,2013-01-23 10:25:00,
2013-01-23 05:30:00,17.2,9.1,30.36,NNE,15,0.0,0.0,70,0.00,,,0.00,Wunderground v.1.15,2013-01-23 10:30:00,
2013-01-23 05:35:00,17.2,9.4,30.36,NNE,15,0.0,0.0,71,0.00,,,0.00,Wunderground v.1.15,2013-01-23 10:35:00,
2013-01-23 05:40:00,17.1,9.6,30.36,NNE,15,0.0,0.0,72,0.00,,,0.00,Wunderground v.1.15,2013-01-23 10:40:00,
2013-01-23 05:45:00,17.1,9.9,30.36,NNE,15,0.0,0.0,73,0.00,,,0.00,Wunderground v.1.15,2013-01-23 10:45:00,
2013-01-23 05:50:00,17.0,9.8,30.36,NNE,15,0.0,0.0,73,0.00,,,0.00,Wunderground v.1.15,2013-01-23 10:50:00,
2013-01-23 06:00:00,16.8,9.6,30.36,NNE,15,0.0,0.0,73,0.00,,,0.00,Wunderground v.1.15,2013-01-23 11:00:00,
2013-01-23 06:05:00,16.8,9.9,30.37,NNE,15,0.0,0.0,74,0.00,,,0.00,Wunderground v.1.15,2013-01-23 11:05:00,
2013-01-23 06:10:00,16.8,10.2,30.36,NNE,15,0.0,0.0,75,0.00,,,0.00,Wunderground v.1.15,2013-01-23 11:10:00,
2013-01-23 06:15:00,16.7,10.1,30.36,NNE,15,0.0,0.0,75,0.00,,,0.00,Wunderground v.1.15,2013-01-23 11:15:00,
2013-01-23 06:20:00,16.7,10.1,30.37,NNE,15,0.0,0.0,75,0.00,,,0.00,Wunderground v.1.15,2013-01-23 11:20:00,
2013-01-23 06:25:00,16.6,10.3,30.37,NNE,15,0.0,0.0,76,0.00,,,0.00,Wunderground v.1.15,2013-01-23 11:25:00,
2013-01-23 06:30:00,16.6,10.3,30.37,NNE,15,0.0,0.0,76,0.00,,,0.00,Wunderground v.1.15,2013-01-23 11:30:00,
2013-01-23 06:40:00,16.4,9.9,30.38,NNE,15,0.0,0.0,75,0.00,,,0.00,Wunderground v.1.15,2013-01-23 11:40:00,
2013-01-23 06:45:00,16.4,9.9,30.38,NNE,15,0.0,0.0,75,0.00,,,0.00,Wunderground v.1.15,2013-01-23 11:45:00,
2013-01-23 06:50:00,16.4,9.9,30.38,NNE,15,0.0,0.0,75,0.00,,,0.00,Wunderground v.1.15,2013-01-23 11:50:00,
2013-01-23 07:00:00,16.3,10.1,30.39,NNE,15,0.0,0.0,76,0.00,,,0.00,Wunderground v.1.15,2013-01-23 12:00:00,
2013-01-23 07:05:00,16.2,10.0,30.38,NNE,15,0.0,0.0,76,0.00,,,0.00,Wunderground v.1.15,2013-01-23 12:05:00,
2013-01-23 07:10:00,16.2,10.3,30.39,NNE,15,0.0,0.0,77,0.00,,,0.00,Wunderground v.1.15,2013-01-23 12:10:00,
2013-01-23 07:20:00,16.1,10.7,30.39,NNE,15,0.0,0.0,79,0.00,,,0.00,Wunderground v.1.15,2013-01-23 12:20:00,
2013-01-23 07:25:00,16.1,10.7,30.39,NNE,15,0.0,0.0,79,0.00,,,0.00,Wunderground v.1.15,2013-01-23 12:25:00,
2013-01-23 07:30:00,16.1,10.4,30.39,NNE,15,0.0,0.0,78,0.00,,,0.00,Wunderground v.1.15,2013-01-23 12:30:00,
2013-01-23 07:40:00,16.0,10.3,30.39,NNE,15,0.0,0.0,78,0.00,,,0.00,Wunderground v.1.15,2013-01-23 12:40:00,
2013-01-23 07:50:00,16.0,10.3,30.39,NNE,15,0.0,0.0,78,0.00,,,0.00,Wunderground v.1.15,2013-01-23 12:50:00,
2013-01-23 07:55:00,16.2,10.5,30.38,NNE,15,0.0,0.0,78,0.00,,,0.00,Wunderground v.1.15,2013-01-23 12:55:00,
2013-01-23 08:00:00,16.4,10.7,30.38,NNE,15,0.0,0.0,78,0.00,,,0.00,Wunderground v.1.15,2013-01-23 13:00:00,
2013-01-23 08:05:00,16.6,10.9,30.38,NNE,15,0.0,0.0,78,0.00,,,0.00,Wunderground v.1.15,2013-01-23 13:05:00,
2013-01-23 08:10:00,16.9,11.5,30.38,NNE,15,0.0,0.0,79,0.00,,,0.00,Wunderground v.1.15,2013-01-23 13:10:00,
2013-01-23 08:15:00,17.4,11.7,30.39,NNE,15,0.0,0.0,78,0.00,,,0.00,Wunderground v.1.15,2013-01-23 13:15:00,
2013-01-23 08:20:00,17.8,12.1,30.38,NNE,15,0.0,0.0,78,0.00,,,0.00,Wunderground v.1.15,2013-01-23 13:20:00,
2013-01-23 08:25:00,18.1,11.8,30.39,NNE,15,0.0,0.0,76,0.00,,,0.00,Wunderground v.1.15,2013-01-23 13:25:00,
2013-01-23 08:30:00,18.5,12.2,30.39,NNE,15,0.0,0.0,76,0.00,,,0.00,Wunderground v.1.15,2013-01-23 13:30:00,
2013-01-23 08:35:00,18.8,12.5,30.39,NNE,15,0.0,0.0,76,0.00,,,0.00,Wunderground v.1.15,2013-01-23 13:35:00,
2013-01-23 08:40:00,19.1,12.5,30.39,NNE,15,0.0,0.0,75,0.00,,,0.00,Wunderground v.1.15,2013-01-23 13:40:00,
2013-01-23 08:50:00,20.0,11.8,30.39,NNE,15,0.0,0.0,70,0.00,,,0.00,Wunderground v.1.15,2013-01-23 13:50:00,
2013-01-23 09:00:00,21.1,9.4,30.40,NNE,15,0.0,0.0,60,0.00,,,0.00,Wunderground v.1.15,2013-01-23 14:00:00,
2013-01-23 09:05:00,21.9,8.6,30.40,NE,56,0.0,0.0,56,0.00,,,0.00,Wunderground v.1.15,2013-01-23 14:05:00,
2013-01-23 09:10:00,22.7,8.9,30.40,NE,56,0.0,0.0,55,0.00,,,0.00,Wunderground v.1.15,2013-01-23 14:10:00,
2013-01-23 09:20:00,23.8,9.6,30.41,SE,126,0.0,0.0,54,0.00,,,0.00,Wunderground v.1.15,2013-01-23 14:20:00,
2013-01-23 09:25:00,24.2,9.5,30.41,NNE,12,0.0,3.0,53,0.00,,,0.00,Wunderground v.1.15,2013-01-23 14:25:00,
2013-01-23 09:30:00,24.7,6.3,30.40,NNW,343,1.0,1.0,45,0.00,,,0.00,Wunderground v.1.15,2013-01-23 14:30:00,
2013-01-23 09:35:00,25.3,7.4,30.41,NNW,343,0.0,1.0,46,0.00,,,0.00,Wunderground v.1.15,2013-01-23 14:35:00,
2013-01-23 09:40:00,25.7,5.7,30.41,SSE,156,0.0,0.0,42,0.00,,,0.00,Wunderground v.1.15,2013-01-23 14:40:00,
2013-01-23 09:45:00,26.1,6.1,30.41,WNW,300,1.0,1.0,42,0.00,,,0.00,Wunderground v.1.15,2013-01-23 14:45:00,
2013-01-23 09:50:00,26.4,5.3,30.41,WNW,284,1.0,1.0,40,0.00,,,0.00,Wunderground v.1.15,2013-01-23 14:50:00,
2013-01-23 09:55:00,26.6,5.5,30.41,WSW,243,1.0,2.0,40,0.00,,,0.00,Wunderground v.1.15,2013-01-23 14:55:00,
2013-01-23 10:00:00,26.8,6.2,30.41,SW,229,1.0,1.0,41,0.00,,,0.00,Wunderground v.1.15,2013-01-23 15:00:00,
2013-01-23 10:05:00,27.3,5.6,30.42,SSW,192,1.0,1.0,39,0.00,,,0.00,Wunderground v.1.15,2013-01-23 15:05:00,
2013-01-23 10:10:00,27.9,6.1,30.42,SW,236,0.0,2.0,39,0.00,,,0.00,Wunderground v.1.15,2013-01-23 15:10:00,
2013-01-23 10:15:00,27.9,5.5,30.41,NW,320,1.0,2.0,38,0.00,,,0.00,Wunderground v.1.15,2013-01-23 15:15:00,
2013-01-23 10:20:00,28.0,5.6,30.41,West,273,1.0,1.0,38,0.00,,,0.01,Wunderground v.1.15,2013-01-23 15:20:00,
2013-01-23 10:25:00,28.2,5.8,30.41,West,273,0.0,1.0,38,0.00,,,0.01,Wunderground v.1.15,2013-01-23 15:25:00,
2013-01-23 10:30:00,28.5,6.1,30.41,South,189,0.0,1.0,38,0.00,,,0.01,Wunderground v.1.15,2013-01-23 15:30:00,
2013-01-23 10:40:00,28.9,6.4,30.41,WNW,299,1.0,2.0,38,0.00,,,0.02,Wunderground v.1.15,2013-01-23 15:40:00,
2013-01-23 10:45:00,29.0,6.5,30.41,WNW,299,1.0,2.0,38,0.10,,,0.03,Wunderground v.1.15,2013-01-23 15:45:00,
2013-01-23 10:50:00,29.7,7.2,30.41,SSE,155,0.0,0.0,38,0.10,,,0.03,Wunderground v.1.15,2013-01-23 15:50:00,
2013-01-23 10:55:00,30.3,6.5,30.41,SSE,166,0.0,0.0,36,0.07,,,0.04,Wunderground v.1.15,2013-01-23 15:55:00,
2013-01-23 11:00:00,30.4,6.6,30.41,West,279,1.0,1.0,36,0.10,,,0.05,Wunderground v.1.15,2013-01-23 16:00:00,
2013-01-23 11:05:00,30.3,5.9,30.40,WNW,301,1.0,1.0,35,0.10,,,0.06,Wunderground v.1.15,2013-01-23 16:05:00,
2013-01-23 11:10:00,30.4,5.3,30.40,WSW,254,2.0,2.0,34,0.12,,,0.07,Wunderground v.1.15,2013-01-23 16:10:00,
2013-01-23 11:15:00,30.7,5.6,30.40,WSW,254,1.0,2.0,34,0.13,,,0.08,Wunderground v.1.15,2013-01-23 16:15:00,
2013-01-23 11:20:00,31.1,7.2,30.39,WNW,294,1.0,3.0,36,0.16,,,0.09,Wunderground v.1.15,2013-01-23 16:20:00,
2013-01-23 11:25:00,31.0,6.5,30.39,SSW,207,1.0,3.0,35,0.14,,,0.10,Wunderground v.1.15,2013-01-23 16:25:00,
2013-01-23 11:30:00,31.1,6.6,30.38,WNW,302,1.0,1.0,35,0.15,,,0.11,Wunderground v.1.15,2013-01-23 16:30:00,
2013-01-23 11:35:00,31.2,7.3,30.38,West,267,1.0,1.0,36,0.12,,,0.12,Wunderground v.1.15,2013-01-23 16:35:00,
2013-01-23 11:40:00,31.5,6.9,30.38,WNW,292,1.0,1.0,35,0.12,,,0.13,Wunderground v.1.15,2013-01-23 16:40:00,
2013-01-23 11:45:00,31.9,7.9,30.37,SSW,200,1.0,1.0,36,0.10,,,0.14,Wunderground v.1.15,2013-01-23 16:45:00,
2013-01-23 11:50:00,32.3,8.3,30.37,SW,234,1.0,1.0,36,0.12,,,0.15,Wunderground v.1.15,2013-01-23 16:50:00,
2013-01-23 11:55:00,32.7,8.6,30.36,West,266,0.0,1.0,36,0.10,,,0.16,Wunderground v.1.15,2013-01-23 16:55:00,
2013-01-23 12:00:00,32.8,8.1,30.36,WSW,244,0.0,2.0,35,0.11,,,0.17,Wunderground v.1.15,2013-01-23 17:00:00,
2013-01-23 12:05:00,33.0,8.3,30.35,SSW,197,1.0,2.0,35,0.10,,,0.17,Wunderground v.1.15,2013-01-23 17:05:00,
2013-01-23 12:10:00,33.2,8.5,30.35,SSE,150,1.0,4.0,35,0.09,,,0.18,Wunderground v.1.15,2013-01-23 17:10:00,
2013-01-23 12:20:00,33.8,9.0,30.34,SW,221,1.0,3.0,35,0.08,,,0.19,Wunderground v.1.15,2013-01-23 17:20:00,
2013-01-23 12:30:00,34.3,10.1,30.33,SW,229,1.0,1.0,36,0.06,,,0.20,Wunderground v.1.15,2013-01-23 17:30:00,
2013-01-23 12:40:00,34.8,11.1,30.32,SSW,206,0.0,2.0,37,0.06,,,0.21,Wunderground v.1.15,2013-01-23 17:40:00,
2013-01-23 12:45:00,34.9,10.6,30.32,WNW,293,1.0,2.0,36,0.05,,,0.21,Wunderground v.1.15,2013-01-23 17:45:00,
2013-01-23 12:50:00,34.9,11.2,30.31,SSW,193,1.0,4.0,37,0.04,,,0.22,Wunderground v.1.15,2013-01-23 17:50:00,
2013-01-23 13:00:00,35.3,11.6,30.30,WNW,296,1.0,3.0,37,0.05,,,0.23,Wunderground v.1.15,2013-01-23 18:00:00,
2013-01-23 13:05:00,35.4,11.1,30.30,SSW,194,2.0,3.0,36,0.05,,,0.23,Wunderground v.1.15,2013-01-23 18:05:00,
2013-01-23 13:10:00,35.6,11.2,30.30,WSW,240,2.0,2.0,36,0.05,,,0.23,Wunderground v.1.15,2013-01-23 18:10:00,
2013-01-23 13:15:00,35.6,11.2,30.30,SW,236,3.0,3.0,36,0.04,,,0.24,Wunderground v.1.15,2013-01-23 18:15:00,
2013-01-23 13:20:00,35.9,12.7,30.30,WNW,286,3.0,3.0,38,0.04,,,0.24,Wunderground v.1.15,2013-01-23 18:20:00,
2013-01-23 13:25:00,36.2,13.0,30.29,SSW,209,2.0,3.0,38,0.04,,,0.24,Wunderground v.1.15,2013-01-23 18:25:00,
2013-01-23 13:30:00,36.3,13.1,30.29,SW,234,2.0,2.0,38,0.05,,,0.25,Wunderground v.1.15,2013-01-23 18:30:00,
2013-01-23 13:35:00,36.4,12.6,30.29,WSW,254,2.0,3.0,37,0.05,,,0.25,Wunderground v.1.15,2013-01-23 18:35:00,
2013-01-23 13:40:00,36.6,12.7,30.28,West,265,2.0,3.0,37,0.04,,,0.25,Wunderground v.1.15,2013-01-23 18:40:00,
2013-01-23 13:45:00,36.6,13.9,30.28,NW,304,2.0,3.0,39,0.04,,,0.26,Wunderground v.1.15,2013-01-23 18:45:00,
2013-01-23 13:50:00,36.6,13.4,30.28,SSE,168,2.0,2.0,38,0.04,,,0.26,Wunderground v.1.15,2013-01-23 18:50:00,
2013-01-23 13:55:00,37.0,13.7,30.28,West,267,2.0,2.0,38,0.04,,,0.26,Wunderground v.1.15,2013-01-23 18:55:00,
2013-01-23 14:00:00,37.3,14.6,30.28,West,277,1.0,1.0,39,0.04,,,0.27,Wunderground v.1.15,2013-01-23 19:00:00,
2013-01-23 14:05:00,37.5,14.2,30.28,SW,231,1.0,1.0,38,0.04,,,0.27,Wunderground v.1.15,2013-01-23 19:05:00,
2013-01-23 14:10:00,37.8,14.4,30.27,SSE,155,1.0,4.0,38,0.04,,,0.27,Wunderground v.1.15,2013-01-23 19:10:00,
2013-01-23 14:15:00,38.0,14.0,30.27,SSW,209,1.0,4.0,37,0.00,,,0.27,Wunderground v.1.15,2013-01-23 19:15:00,
2013-01-23 14:20:00,37.9,13.9,30.26,SW,229,1.0,2.0,37,0.00,,,0.28,Wunderground v.1.15,2013-01-23 19:20:00,
2013-01-23 14:25:00,37.6,14.2,30.26,SSE,162,1.0,4.0,38,0.00,,,0.28,Wunderground v.1.15,2013-01-23 19:25:00,
2013-01-23 14:30:00,37.5,14.8,30.26,West,273,1.0,1.0,39,0.00,,,0.28,Wunderground v.1.15,2013-01-23 19:30:00,
2013-01-23 14:35:00,37.6,15.4,30.26,WNW,283,0.0,1.0,40,0.04,,,0.29,Wunderground v.1.15,2013-01-23 19:35:00,
2013-01-23 14:40:00,37.7,16.1,30.26,WNW,283,0.0,2.0,41,0.04,,,0.29,Wunderground v.1.15,2013-01-23 19:40:00,
2013-01-23 14:45:00,38.0,15.8,30.26,West,259,1.0,2.0,40,0.04,,,0.29,Wunderground v.1.15,2013-01-23 19:45:00,
2013-01-23 14:50:00,38.3,15.5,30.26,South,188,1.0,1.0,39,0.00,,,0.29,Wunderground v.1.15,2013-01-23 19:50:00,
2013-01-23 14:55:00,38.3,16.6,30.26,West,273,0.0,2.0,41,0.00,,,0.30,Wunderground v.1.15,2013-01-23 19:55:00,
2013-01-23 15:00:00,38.3,16.1,30.25,West,269,1.0,1.0,40,0.00,,,0.30,Wunderground v.1.15,2013-01-23 20:00:00,
2013-01-23 15:05:00,38.2,16.0,30.25,WNW,284,1.0,1.0,40,0.00,,,0.30,Wunderground v.1.15,2013-01-23 20:05:00,
2013-01-23 15:10:00,38.2,16.0,30.25,South,184,1.0,1.0,40,0.00,,,0.30,Wunderground v.1.15,2013-01-23 20:10:00,
2013-01-23 15:15:00,38.2,16.5,30.25,NW,304,1.0,3.0,41,0.00,,,0.31,Wunderground v.1.15,2013-01-23 20:15:00,
2013-01-23 15:20:00,38.4,16.7,30.25,WNW,297,0.0,0.0,41,0.00,,,0.31,Wunderground v.1.15,2013-01-23 20:20:00,
2013-01-23 15:25:00,38.4,17.3,30.24,WNW,297,0.0,0.0,42,0.00,,,0.31,Wunderground v.1.15,2013-01-23 20:25:00,
2013-01-23 15:30:00,38.5,16.8,30.24,South,184,0.0,1.0,41,0.00,,,0.31,Wunderground v.1.15,2013-01-23 20:30:00,
2013-01-23 15:40:00,39.6,16.0,30.24,SW,227,1.0,1.0,38,0.00,,,0.31,Wunderground v.1.15,2013-01-23 20:40:00,
2013-01-23 15:45:00,39.9,16.3,30.23,SW,221,1.0,4.0,38,0.00,,,0.32,Wunderground v.1.15,2013-01-23 20:45:00,
2013-01-23 15:50:00,39.8,16.8,30.23,WSW,238,2.0,4.0,39,0.00,,,0.32,Wunderground v.1.15,2013-01-23 20:50:00,
2013-01-23 16:00:00,39.7,16.7,30.23,SSE,161,2.0,2.0,39,0.00,,,0.32,Wunderground v.1.15,2013-01-23 21:00:00,
2013-01-23 16:10:00,39.4,16.5,30.23,South,173,1.0,2.0,39,0.00,,,0.32,Wunderground v.1.15,2013-01-23 21:10:00,
2013-01-23 16:20:00,39.0,16.7,30.23,SE,134,1.0,1.0,40,0.00,,,0.33,Wunderground v.1.15,2013-01-23 21:20:00,
2013-01-23 16:30:00,39.0,17.3,30.23,WNW,283,0.0,0.0,41,0.00,,,0.33,Wunderground v.1.15,2013-01-23 21:30:00,
2013-01-23 16:40:00,38.8,17.1,30.23,SSW,206,0.0,0.0,41,0.00,,,0.33,Wunderground v.1.15,2013-01-23 21:40:00,
2013-01-23 16:45:00,38.7,17.0,30.23,SSW,193,0.0,0.0,41,0.00,,,0.33,Wunderground v.1.15,2013-01-23 21:45:00,
2013-01-23 16:50:00,38.6,16.9,30.23,SSW,194,0.0,0.0,41,0.00,,,0.33,Wunderground v.1.15,2013-01-23 21:50:00,
2013-01-23 16:55:00,38.6,16.3,30.23,SSW,205,1.0,3.0,40,0.00,,,0.34,Wunderground v.1.15,2013-01-23 21:55:00,
2013-01-23 17:00:00,38.4,15.6,30.23,SSE,167,1.0,1.0,39,0.00,,,0.34,Wunderground v.1.15,2013-01-23 22:00:00,
2013-01-23 17:05:00,38.3,16.6,30.23,SSE,153,1.0,1.0,41,0.00,,,0.34,Wunderground v.1.15,2013-01-23 22:05:00,
2013-01-23 17:10:00,38.0,15.8,30.23,SE,127,0.0,0.0,40,0.00,,,0.34,Wunderground v.1.15,2013-01-23 22:10:00,
2013-01-23 17:15:00,37.9,15.7,30.23,SSE,157,1.0,2.0,40,0.00,,,0.34,Wunderground v.1.15,2013-01-23 22:15:00,
2013-01-23 17:20:00,37.9,15.7,30.23,SSE,168,1.0,1.0,40,0.00,,,0.34,Wunderground v.1.15,2013-01-23 22:20:00,
2013-01-23 17:25:00,37.7,15.5,30.23,SSW,209,1.0,1.0,40,0.00,,,0.34,Wunderground v.1.15,2013-01-23 22:25:00,
2013-01-23 17:30:00,37.6,16.5,30.23,SW,227,0.0,0.0,42,0.00,,,0.35,Wunderground v.1.15,2013-01-23 22:30:00,
2013-01-23 17:40:00,37.1,16.1,30.23,SSE,168,0.0,0.0,42,0.00,,,0.35,Wunderground v.1.15,2013-01-23 22:40:00,
2013-01-23 17:45:00,36.9,15.9,30.23,South,180,0.0,0.0,42,0.00,,,0.35,Wunderground v.1.15,2013-01-23 22:45:00,
2013-01-23 17:50:00,36.7,16.8,30.23,South,179,0.0,0.0,44,0.00,,,0.35,Wunderground v.1.15,2013-01-23 22:50:00,
2013-01-23 18:00:00,36.0,16.2,30.22,South,179,0.0,0.0,44,0.00,,,0.35,Wunderground v.1.15,2013-01-23 23:00:00,
2013-01-23 18:05:00,35.7,15.9,30.22,South,179,0.0,0.0,44,0.00,,,0.35,Wunderground v.1.15,2013-01-23 23:05:00,
2013-01-23 18:10:00,35.3,16.0,30.22,South,179,0.0,0.0,45,0.00,,,0.35,Wunderground v.1.15,2013-01-23 23:10:00,
2013-01-23 18:20:00,34.6,15.9,30.22,South,179,0.0,0.0,46,0.00,,,0.36,Wunderground v.1.15,2013-01-23 23:20:00,
2013-01-23 18:25:00,34.3,15.6,30.22,South,179,0.0,0.0,46,0.00,,,0.36,Wunderground v.1.15,2013-01-23 23:25:00,
2013-01-23 18:30:00,33.9,15.8,30.22,South,179,0.0,0.0,47,0.00,,,0.36,Wunderground v.1.15,2013-01-23 23:30:00,
2013-01-23 18:35:00,33.6,16.5,30.22,South,179,0.0,0.0,49,0.00,,,0.36,Wunderground v.1.15,2013-01-23 23:35:00,
2013-01-23 18:40:00,33.2,17.0,30.21,South,179,0.0,0.0,51,0.00,,,0.36,Wunderground v.1.15,2013-01-23 23:40:00,
2013-01-23 18:45:00,33.0,16.4,30.21,South,179,0.0,0.0,50,0.00,,,0.36,Wunderground v.1.15,2013-01-23 23:45:00,
2013-01-23 18:50:00,32.7,16.1,30.21,South,179,0.0,0.0,50,0.00,,,0.36,Wunderground v.1.15,2013-01-23 23:50:00,
2013-01-23 18:55:00,32.5,15.4,30.21,South,179,0.0,0.0,49,0.00,,,0.36,Wunderground v.1.15,2013-01-23 23:55:00,
2013-01-23 19:00:00,32.3,15.7,30.20,South,179,0.0,0.0,50,0.00,,,0.36,Wunderground v.1.15,2013-01-24 00:00:00,
2013-01-23 19:10:00,31.9,15.8,30.20,South,179,0.0,0.0,51,0.00,,,0.36,Wunderground v.1.15,2013-01-24 00:10:00,
2013-01-23 19:15:00,31.7,16.1,30.20,South,179,0.0,0.0,52,0.00,,,0.36,Wunderground v.1.15,2013-01-24 00:15:00,
2013-01-23 19:20:00,31.5,16.3,30.20,South,179,0.0,0.0,53,0.00,,,0.36,Wunderground v.1.15,2013-01-24 00:20:00,
2013-01-23 19:30:00,31.1,15.5,30.19,South,179,0.0,0.0,52,0.00,,,0.36,Wunderground v.1.15,2013-01-24 00:30:00,
2013-01-23 19:35:00,31.0,15.8,30.19,South,179,0.0,0.0,53,0.00,,,0.36,Wunderground v.1.15,2013-01-24 00:35:00,
2013-01-23 19:40:00,31.0,15.8,30.19,South,179,0.0,0.0,53,0.00,,,0.36,Wunderground v.1.15,2013-01-24 00:40:00,
2013-01-23 19:45:00,30.9,15.8,30.18,South,173,0.0,0.0,53,0.00,,,0.36,Wunderground v.1.15,2013-01-24 00:45:00,
2013-01-23 19:50:00,30.8,16.9,30.19,South,173,0.0,0.0,56,0.00,,,0.36,Wunderground v.1.15,2013-01-24 00:50:00,
2013-01-23 20:00:00,30.3,15.6,30.19,South,173,0.0,0.0,54,0.00,,,0.36,Wunderground v.1.15,2013-01-24 01:00:00,
2013-01-23 20:10:00,29.8,16.0,30.18,South,173,0.0,0.0,56,0.00,,,0.36,Wunderground v.1.15,2013-01-24 01:10:00,
2013-01-23 20:15:00,29.7,15.9,30.18,South,173,0.0,0.0,56,0.00,,,0.36,Wunderground v.1.15,2013-01-24 01:15:00,
2013-01-23 20:20:00,29.6,16.6,30.18,South,173,0.0,0.0,58,0.00,,,0.36,Wunderground v.1.15,2013-01-24 01:20:00,
2013-01-23 20:25:00,29.6,16.2,30.17,South,173,0.0,0.0,57,0.00,,,0.36,Wunderground v.1.15,2013-01-24 01:25:00,
2013-01-23 20:30:00,29.6,16.6,30.18,South,173,0.0,0.0,58,0.00,,,0.36,Wunderground v.1.15,2013-01-24 01:30:00,
2013-01-23 20:40:00,29.6,16.6,30.17,South,173,0.0,0.0,58,0.00,,,0.36,Wunderground v.1.15,2013-01-24 01:40:00,
2013-01-23 20:45:00,29.6,16.6,30.17,South,173,0.0,0.0,58,0.00,,,0.36,Wunderground v.1.15,2013-01-24 01:45:00,
2013-01-23 20:50:00,29.6,16.2,30.17,South,173,0.0,0.0,57,0.00,,,0.36,Wunderground v.1.15,2013-01-24 01:50:00,
2013-01-23 20:55:00,29.7,16.3,30.17,South,171,0.0,0.0,57,0.00,,,0.36,Wunderground v.1.15,2013-01-24 01:55:00,
2013-01-23 21:00:00,29.7,16.3,30.17,South,171,0.0,0.0,57,0.00,,,0.36,Wunderground v.1.15,2013-01-24 02:00:00,
2013-01-23 21:05:00,29.8,16.8,30.17,South,171,0.0,0.0,58,0.00,,,0.36,Wunderground v.1.15,2013-01-24 02:05:00,
2013-01-23 21:10:00,29.9,16.1,30.17,South,171,0.0,0.0,56,0.00,,,0.36,Wunderground v.1.15,2013-01-24 02:10:00,
2013-01-23 21:15:00,29.8,16.0,30.17,South,171,0.0,0.0,56,0.00,,,0.36,Wunderground v.1.15,2013-01-24 02:15:00,
2013-01-23 21:20:00,29.9,16.9,30.16,South,171,0.0,0.0,58,0.00,,,0.36,Wunderground v.1.15,2013-01-24 02:20:00,
2013-01-23 21:30:00,29.7,16.7,30.16,South,171,0.0,0.0,58,0.00,,,0.36,Wunderground v.1.15,2013-01-24 02:30:00,
2013-01-23 21:35:00,29.7,16.7,30.16,South,171,0.0,0.0,58,0.00,,,0.36,Wunderground v.1.15,2013-01-24 02:35:00,
2013-01-23 21:40:00,29.7,16.7,30.15,South,171,0.0,0.0,58,0.00,,,0.36,Wunderground v.1.15,2013-01-24 02:40:00,
2013-01-23 21:45:00,29.7,17.1,30.16,South,174,0.0,0.0,59,0.00,,,0.36,Wunderground v.1.15,2013-01-24 02:45:00,
2013-01-23 21:50:00,29.8,17.2,30.15,South,174,0.0,0.0,59,0.00,,,0.36,Wunderground v.1.15,2013-01-24 02:50:00,
2013-01-23 22:00:00,29.9,17.7,30.15,South,174,0.0,0.0,60,0.00,,,0.36,Wunderground v.1.15,2013-01-24 03:00:00,
2013-01-23 22:05:00,30.0,17.4,30.15,SE,136,0.0,0.0,59,0.00,,,0.36,Wunderground v.1.15,2013-01-24 03:05:00,
2013-01-23 22:10:00,30.2,17.6,30.14,ESE,123,0.0,0.0,59,0.00,,,0.36,Wunderground v.1.15,2013-01-24 03:10:00,
2013-01-23 22:15:00,30.3,16.9,30.14,ESE,123,0.0,1.0,57,0.00,,,0.36,Wunderground v.1.15,2013-01-24 03:15:00,
2013-01-23 22:20:00,30.6,17.2,30.14,South,191,0.0,0.0,57,0.00,,,0.36,Wunderground v.1.15,2013-01-24 03:20:00,
2013-01-23 22:25:00,30.9,17.0,30.14,SSW,202,0.0,0.0,56,0.00,,,0.36,Wunderground v.1.15,2013-01-24 03:25:00,
2013-01-23 22:30:00,31.1,17.2,30.13,SE,135,0.0,0.0,56,0.00,,,0.36,Wunderground v.1.15,2013-01-24 03:30:00,
2013-01-23 22:40:00,31.2,17.3,30.13,SW,217,0.0,0.0,56,0.00,,,0.36,Wunderground v.1.15,2013-01-24 03:40:00,
2013-01-23 22:45:00,31.3,17.4,30.12,South,169,0.0,0.0,56,0.00,,,0.36,Wunderground v.1.15,2013-01-24 03:45:00,
2013-01-23 22:50:00,31.3,17.0,30.12,SSE,167,0.0,0.0,55,0.00,,,0.36,Wunderground v.1.15,2013-01-24 03:50:00,
2013-01-23 22:55:00,31.4,17.1,30.12,NE,42,0.0,0.0,55,0.00,,,0.36,Wunderground v.1.15,2013-01-24 03:55:00,
2013-01-23 23:00:00,31.5,16.7,30.12,South,175,0.0,0.0,54,0.00,,,0.36,Wunderground v.1.15,2013-01-24 04:00:00,
2013-01-23 23:10:00,31.7,16.9,30.11,SSE,153,0.0,0.0,54,0.00,,,0.36,Wunderground v.1.15,2013-01-24 04:10:00,
2013-01-23 23:15:00,31.8,17.5,30.11,SW,234,0.0,0.0,55,0.00,,,0.36,Wunderground v.1.15,2013-01-24 04:15:00,
2013-01-23 23:20:00,31.7,17.4,30.11,SW,234,0.0,0.0,55,0.00,,,0.36,Wunderground v.1.15,2013-01-24 04:20:00,
2013-01-23 23:25:00,31.6,17.3,30.11,SW,234,0.0,0.0,55,0.00,,,0.36,Wunderground v.1.15,2013-01-24 04:25:00,
2013-01-23 23:30:00,31.6,17.3,30.10,South,173,0.0,0.0,55,0.00,,,0.36,Wunderground v.1.15,2013-01-24 04:30:00,
2013-01-23 23:40:00,31.5,17.6,30.09,South,185,0.0,0.0,56,0.00,,,0.36,Wunderground v.1.15,2013-01-24 04:40:00,
2013-01-23 23:45:00,31.5,17.2,30.09,SE,124,0.0,0.0,55,0.00,,,0.36,Wunderground v.1.15,2013-01-24 04:45:00,
2013-01-23 23:50:00,31.5,17.6,30.09,ESE,105,0.0,0.0,56,0.00,,,0.36,Wunderground v.1.15,2013-01-24 04:50:00,